Probability
0 0 1 4 4 1 0 0 0 0 1 1 0 0 0 1 1 1 2 8 14 16 13 13 12 8 6 7 8 9 7 4 2 1 2 3 5 6 6 6 5 4 3 2 2 3 4 4 5
0 0 1 2 2 1 0 0 0 1 2 2 1 0 1 1 1 2 3 8 13 15 13 14 14 10 7 7 7 8 7 4 2 1 1 3 4 6 6 6 5 4 3 3 3 4 4 6 7
0 0 0 1 1 0 0 0 0 1 2 2 1 1 1 2 3 3 4 8 12 15 15 17 17 13 8 6 7 7 6 4 3 2 2 3 4 6 6 6 6 5 4 4 4 4 5 7 8
0 0 0 0 0 0 0 0 0 1 1 1 1 2 3 3 4 5 5 7 13 17 18 20 20 15 10 8 7 7 6 4 3 3 3 4 5 6 6 6 5 5 6 5 5 5 5 7 8
0 0 0 0 0 0 0 0 0 0 0 0 1 3 4 5 6 6 6 9 16 21 20 20 21 20 15 11 8 7 6 5 5 4 4 5 6 7 6 5 4 4 6 6 6 6 6 6 6
0 0 0 0 0 0 0 0 0 0 1 1 1 3 6 8 8 8 9 13 19 22 21 20 20 21 19 14 10 8 6 6 5 5 6 7 8 8 7 5 4 5 6 6 6 7 7 6 5
0 0 0 0 0 0 0 0 0 0 1 1 2 4 7 10 11 11 12 15 18 20 22 20 17 18 18 16 13 9 7 6 5 5 7 9 10 10 7 5 5 5 5 6 6 6 6 5 4
0 0 0 0 0 0 0 0 0 1 1 2 3 5 9 12 13 13 14 15 16 19 22 21 17 15 16 16 14 12 9 7 7 7 8 9 10 9 6 4 4 4 4 4 4 4 5 5 4
0 0 0 0 1 1 1 0 0 1 2 3 4 7 10 12 13 14 17 18 17 19 22 22 20 18 16 15 15 14 12 10 9 8 8 8 8 6 4 3 3 2 2 3 3 3 4 5 4
0 0 0 0 1 2 1 0 0 1 3 4 6 9 11 12 14 17 20 22 22 21 21 22 22 20 17 15 16 16 14 12 10 9 8 6 5 4 3 3 3 3 3 3 3 3 3 4 4
0 0 0 0 1 1 1 0 1 1 3 5 8 11 12 12 13 18 21 24 25 24 23 23 24 23 20 18 18 17 16 15 14 12 9 7 4 3 3 3 4 4 4 3 3 4 4 3 3
0 0 0 0 0 0 0 0 1 2 2 5 8 9 9 10 11 14 19 22 24 24 24 27 28 28 26 24 21 19 18 18 17 15 13 10 7 5 5 5 5 5 4 4 4 5 5 4 4
0 0 0 0 0 0 0 0 2 2 2 4 5 5 5 6 8 11 16 20 22 24 27 31 32 34 33 28 23 21 20 19 18 16 14 13 10 8 8 7 7 5 4 5 5 5 5 5 5
0 0 0 0 0 0 0 0 2 2 2 2 2 2 2 4 8 13 18 21 22 26 32 34 35 37 35 29 24 22 22 20 18 16 15 14 12 11 10 9 9 7 5 6 6 5 5 5 5
0 0 0 0 0 0 0 0 1 2 2 1 1 1 0 2 8 16 21 22 23 30 37 37 35 35 35 30 24 22 22 21 19 16 15 14 12 11 11 10 10 8 6 5 6 6 5 5 6
0 0 0 0 0 0 0 0 0 1 2 2 2 2 1 2 8 18 24 25 27 35 41 40 35 35 35 31 25 23 22 22 21 18 15 14 11 10 11 12 11 8 6 5 5 6 6 6 5
0 0 0 0 0 0 0 0 0 0 2 4 5 4 3 4 10 21 28 30 33 40 44 44 41 38 35 29 25 24 23 21 20 19 17 15 11 10 12 13 11 7 7 7 6 6 7 7 6
0 0 0 0 0 0 0 1 1 1 2 5 7 6 5 8 15 25 33 37 40 44 46 47 46 43 36 29 25 23 21 19 17 16 17 17 14 13 14 14 12 9 8 9 9 8 9 9 8
0 0 0 0 0 0 0 1 1 1 2 6 9 7 7 12 21 30 38 42 45 47 49 49 47 44 40 35 29 25 22 19 16 16 18 18 17 17 16 15 13 11 10 10 10 10 10 10 10
0 0 0 0 0 0 0 1 1 1 3 7 10 9 10 17 25 34 41 46 48 49 50 48 46 44 43 41 36 30 26 24 21 19 20 20 19 18 17 15 14 13 12 12 11 11 10 10 10
0 0 0 0 0 0 0 1 3 4 4 5 9 11 15 21 28 35 43 48 50 50 49 45 44 45 44 41 37 32 30 27 24 23 21 19 18 17 16 16 16 14 13 13 13 12 10 10 10
0 0 0 0 0 0 0 2 4 6 5 4 6 11 18 26 32 36 43 50 52 51 48 45 45 46 45 41 36 32 30 28 26 25 22 19 17 16 16 16 17 16 13 12 11 11 12 11 10
0 0 0 0 0 0 0 1 4 8 8 7 7 11 19 28 35 39 43 49 51 49 47 47 49 49 46 43 38 34 31 29 28 28 25 22 19 17 17 17 18 17 14 11 9 10 13 13 12
0 0 0 0 0 0 0 1 4 9 12 12 11 14 22 29 35 39 42 44 46 46 46 51 54 50 45 43 42 38 35 33 32 32 29 24 21 19 19 19 19 18 14 12 11 11 12 13 12
0 0 0 0 0 0 0 2 5 11 14 15 15 18 25 32 35 38 40 39 40 44 49 54 55 50 43 42 43 43 41 37 35 34 31 26 23 21 21 21 21 18 14 12 13 12 13 14 13
0 0 0 0 0 0 1 3 9 12 14 16 17 19 25 31 34 36 38 38 39 46 52 54 53 49 43 41 43 45 43 39 36 34 32 27 23 22 22 24 23 19 14 12 12 13 13 15 15
1 0 0 0 0 1 1 5 10 14 16 17 17 18 22 28 31 34 36 36 39 45 51 52 51 48 43 42 43 44 43 40 37 36 33 28 24 22 23 25 25 21 16 12 11 12 13 15 16
1 1 0 0 0 0 1 4 9 14 17 17 16 17 21 24 28 32 34 35 36 41 46 49 50 48 45 43 43 43 44 42 38 36 33 29 26 23 23 24 25 23 19 16 14 13 14 16 17
1 1 1 0 0 0 0 3 8 14 17 16 15 16 19 21 24 29 33 34 34 37 42 46 47 47 46 44 44 44 44 43 39 34 31 29 26 24 23 23 25 24 23 21 19 16 16 18 19
0 0 1 0 0 0 1 3 7 14 17 16 14 15 17 19 22 27 32 33 33 36 40 44 45 45 46 45 45 44 44 43 40 35 31 27 25 24 23 23 24 24 25 25 23 19 18 19 19
Wind_Speed
8 11 10 8 7 6 4 1 5 8 10 10 10 9 12 14 10 9 8 13 17 17 15 14 13 12 11 10 10 9 9 9 8 8 8 7 8 8 8 9 9 8 8 8 8 8 8 8 8
9 12 10 7 7 5 1 3 8 10 11 8 8 9 11 13 12 12 11 12 16 17 15 13 14 12 11 10 10 9 9 8 8 8 7 7 8 9 9 9 9 8 8 8 8 8 8 7 6
13 15 9 8 7 4 2 6 8 9 8 7 8 9 9 9 11 10 11 13 15 16 15 14 14 12 11 10 10 9 9 8 8 8 7 8 8 8 8 8 8 8 8 7 7 7 7 6 5
9 9 8 8 6 3 2 5 6 6 5 6 6 7 10 10 10 11 12 13 15 17 16 15 14 12 11 10 10 9 9 8 8 8 7 8 8 8 8 8 8 8 7 7 6 6 6 5 4
10 8 10 9 7 3 3 5 4 4 3 6 8 8 10 11 14 13 11 12 14 16 15 15 14 13 11 10 10 9 8 8 8 8 8 8 8 8 8 8 8 7 7 6 6 5 5 4 3
8 8 11 9 6 2 2 4 3 3 3 4 7 8 9 10 12 12 12 11 14 15 15 14 14 13 12 11 10 9 8 8 8 8 7 7 7 7 7 7 7 7 6 6 5 5 5 4 3
10 10 12 12 6 2 1 3 2 1 3 3 4 6 9 11 11 11 11 11 13 14 15 13 12 12 12 11 10 9 8 8 8 7 7 7 7 7 7 7 7 6 5 5 4 4 4 3 3
10 9 14 13 9 2 2 2 2 1 1 2 2 4 9 11 10 11 10 10 11 11 13 12 12 11 10 10 10 9 9 8 8 7 7 7 7 7 7 6 6 6 5 4 3 2 3 3 4
13 11 12 14 9 1 3 1 2 1 0 2 4 6 10 13 12 12 11 9 9 10 11 11 11 10 10 10 10 10 9 8 8 7 7 6 4 5 5 6 7 6 5 4 3 3 3 4 5
12 11 14 12 9 4 1 1 0 1 2 2 5 8 12 12 11 11 11 11 10 9 10 8 10 9 9 8 8 6 6 6 5 4 5 4 3 3 6 7 8 7 6 6 5 5 6 5 3
14 15 14 11 8 7 5 4 2 3 3 2 5 9 10 10 9 9 9 10 10 9 8 8 7 7 7 5 6 4 4 5 5 4 4 3 2 3 4 3 4 4 5 4 4 5 4 3 2
16 16 14 11 8 7 7 6 4 3 2 1 6 8 8 8 8 8 8 9 9 9 9 8 7 6 6 5 4 4 4 3 4 3 2 2 2 2 2 2 2 2 2 3 2 2 2 1 2
15 14 13 12 10 8 8 6 6 4 1 3 4 7 6 8 8 8 7 9 9 9 9 8 7 5 4 4 2 3 3 4 4 3 2 2 2 2 2 1 1 2 2 2 1 0 1 1 1
14 14 13 12 11 10 10 9 7 6 4 5 5 5 6 7 8 8 9 9 9 9 9 8 8 6 5 4 2 3 3 3 3 3 3 2 1 2 2 1 1 1 1 1 1 1 0 0 0
15 15 15 14 13 12 10 11 9 7 6 6 7 7 7 6 6 7 8 8 8 8 8 9 8 7 5 5 3 3 3 3 2 3 3 3 2 2 1 1 1 0 1 1 1 0 1 1 1
14 15 16 14 14 12 12 12 7 7 8 8 7 7 7 6 7 7 8 8 8 8 8 8 8 8 6 4 3 3 3 3 2 3 3 3 2 2 1 1 1 0 0 0 1 0 0 1 0
15 16 16 12 12 11 12 10 8 8 9 8 8 7 8 8 7 8 9 9 9 8 8 7 6 7 7 5 3 2 2 2 2 3 2 3 3 2 1 1 1 1 0 1 0 1 1 1 1
12 13 13 11 11 12 12 9 8 8 8 8 8 8 8 7 7 8 10 9 10 9 8 7 6 6 5 5 3 2 2 2 2 2 2 3 3 2 2 1 1 1 0 0 1 0 0 1 1
15 15 14 12 10 11 11 9 8 7 8 8 8 9 7 6 7 8 9 10 10 9 8 6 6 6 4 4 4 3 3 2 2 3 3 3 2 2 1 1 1 1 1 1 0 1 1 2 1
17 17 16 11 8 8 9 10 8 9 9 8 8 9 9 8 7 8 9 9 9 9 8 7 5 6 5 4 3 3 3 2 3 2 3 3 3 2 2 1 1 1 1 1 1 1 1 2 1
16 16 14 12 9 9 10 12 11 8 8 7 7 7 9 10 9 9 9 9 9 9 9 7 6 5 4 4 3 3 2 2 2 3 3 3 3 2 1 2 1 1 1 1 1 1 2 2 1
15 14 14 14 12 9 10 9 9 8 8 7 7 6 8 9 9 9 10 10 9 9 9 7 6 5 4 4 4 5 4 3 3 3 3 3 3 3 2 2 1 1 1 1 2 1 2 2 2
14 13 14 14 13 13 11 10 7 7 7 7 8 7 6 8 9 9 9 9 9 9 9 8 7 5 5 5 5 4 4 3 3 3 4 4 3 3 2 2 1 1 1 2 2 1 2 2 2
12 12 12 12 12 15 14 12 7 5 7 7 6 5 5 7 8 8 7 7 8 9 9 8 7 6 5 5 4 4 4 4 4 4 4 3 3 2 2 2 2 1 1 1 2 2 2 2 2
11 10 9 10 11 12 11 11 4 4 6 6 6 5 5 6 7 8 8 7 7 8 9 8 8 7 6 5 4 4 4 4 4 3 4 3 2 2 2 2 2 2 2 1 1 2 2 2 2
13 14 11 10 10 9 10 8 3 2 2 4 6 6 5 6 6 7 8 8 7 7 8 8 8 7 6 5 5 4 4 3 2 2 2 2 2 2 3 3 2 2 2 2 1 2 2 2 2
14 14 15 14 13 11 7 6 4 2 3 5 5 6 6 6 7 7 6 7 7 7 7 7 8 7 6 5 4 4 4 3 3 3 2 2 2 3 3 3 3 2 2 1 1 2 2 2 2
13 11 9 11 11 11 8 8 6 5 5 5 5 4 5 6 5 5 5 5 6 6 7 7 7 7 6 5 5 5 4 4 3 3 3 2 2 2 3 3 3 2 2 2 2 2 2 1 1
11 12 10 9 10 10 9 4 1 4 4 4 4 4 5 5 5 4 4 4 5 6 7 7 7 6 5 5 5 4 5 5 4 3 3 2 2 2 3 2 2 2 2 2 2 2 1 1 1
12 12 10 9 10 10 9 4 1 2 4 4 2 3 4 4 5 5 5 4 5 5 5 6 6 6 5 5 4 4 4 4 4 4 3 3 2 2 2 2 2 3 3 2 2 2 2 1 1
Wind_Direction
237 241 234 246 246 244 266 72 66 65 66 58 50 53 55 51 58 88 102 103 112 118 123 123 118 116 115 114 112 111 107 103 101 101 100 98 96 97 101 106 108 108 110 114 115 116 116 112 112
257 253 242 246 253 267 318 59 73 67 71 70 68 67 69 69 77 100 107 110 119 120 124 122 122 119 118 117 116 114 110 107 102 101 102 104 104 101 102 108 109 106 105 109 112 114 115 115 117
260 260 263 250 251 268 48 68 75 78 82 79 71 66 64 78 86 99 114 124 121 121 120 122 126 123 122 120 117 116 115 113 110 107 106 108 110 106 105 110 112 109 106 107 112 117 122 121 122
257 244 243 259 274 274 83 74 76 83 79 88 80 79 79 79 92 108 124 127 122 120 120 126 128 125 124 124 122 119 117 118 116 114 111 111 113 111 109 109 111 112 110 109 111 117 126 126 126
246 258 252 258 264 278 79 84 87 93 83 85 90 90 91 93 106 118 127 124 121 119 122 128 131 129 128 127 126 125 121 120 120 118 114 115 116 116 114 113 112 112 111 110 111 114 126 131 139
253 258 265 260 258 235 117 98 97 99 95 98 112 111 106 116 120 125 126 124 121 121 124 130 135 135 135 133 131 130 127 125 126 126 120 121 123 123 122 122 117 114 112 109 106 110 123 134 157
258 271 274 275 269 228 119 92 90 105 115 93 101 116 123 126 124 127 126 125 123 126 129 137 141 140 140 140 139 140 138 134 133 132 131 130 130 130 130 127 119 117 114 111 111 118 131 149 185
262 280 286 280 275 221 127 97 79 357 76 81 93 121 131 129 134 131 127 126 125 128 133 143 146 147 150 147 147 148 146 142 143 145 147 145 144 143 141 134 126 124 122 121 126 141 162 184 213
253 261 268 274 282 267 137 167 123 69 63 84 64 88 127 140 144 139 136 134 133 135 136 145 147 151 154 149 147 152 153 155 158 163 164 165 163 152 151 136 138 139 145 155 174 199 205 211 224
240 247 255 273 293 317 324 307 273 186 255 130 104 118 133 146 147 148 150 146 144 141 141 144 146 150 152 146 143 156 157 156 169 158 167 181 168 141 133 143 153 156 161 174 199 217 216 218 222
242 249 261 275 293 307 300 294 293 265 254 205 131 131 139 147 151 153 154 149 145 147 142 142 138 140 142 139 149 157 152 152 163 160 174 162 148 141 138 150 159 174 177 189 197 217 222 210 206
244 251 260 272 280 277 282 282 294 290 273 148 125 136 151 157 161 160 155 143 145 150 148 139 132 129 134 135 143 151 148 152 149 153 174 150 154 141 135 152 158 179 177 186 190 196 204 210 222
249 254 259 265 266 262 263 262 265 268 288 84 137 151 167 170 169 163 152 148 150 153 150 140 132 126 115 117 146 143 134 149 143 148 174 158 152 145 129 146 166 180 172 172 179 169 180 211 234
261 260 261 260 260 257 256 250 242 237 185 166 169 157 169 177 171 161 154 155 154 151 147 138 136 133 128 129 141 123 137 128 142 152 156 164 153 122 135 163 190 177 154 132 149 160 199 69 26
261 263 259 251 247 242 246 246 229 214 195 194 184 170 180 174 168 157 156 156 155 145 139 139 144 144 146 147 161 143 145 142 147 140 145 156 160 143 143 155 203 170 148 154 134 174 177 186 178
255 254 252 246 245 235 234 245 210 208 197 195 192 179 177 169 173 163 154 152 147 143 138 145 154 150 151 150 165 156 148 143 147 144 146 156 160 159 159 157 154 226 146 143 152 352 359 30 21
243 244 249 244 237 232 232 242 220 206 199 197 189 184 182 173 178 165 157 155 144 139 136 143 143 148 155 157 161 151 128 133 136 137 145 155 166 162 180 157 133 242 102 74 353 72 33 356 328
246 250 255 252 235 232 236 232 215 210 200 194 188 187 186 179 179 169 156 149 138 138 139 142 138 141 151 154 153 147 148 152 152 141 147 148 168 177 183 161 165 226 131 84 52 30 279 293 280
257 261 260 251 242 236 241 237 220 209 212 202 192 190 185 184 175 153 147 144 140 140 143 145 150 147 153 158 165 166 172 175 160 153 148 153 163 175 168 176 181 193 188 165 194 267 251 247 260
255 260 264 259 240 244 253 253 234 214 215 211 200 189 184 177 167 152 154 152 151 150 149 148 149 156 168 162 169 166 161 170 151 147 149 154 160 182 188 188 200 194 205 195 227 252 283 270 236
251 256 268 272 259 244 251 252 245 216 208 201 195 188 183 171 168 164 161 158 160 156 156 159 158 164 169 158 163 151 145 154 154 159 162 165 169 172 187 189 225 210 194 194 218 243 254 280 279
250 253 262 269 265 252 240 258 244 218 204 193 193 198 187 172 166 166 165 164 164 159 158 157 157 161 165 164 172 173 172 174 169 159 162 164 163 171 182 180 201 217 202 202 230 232 258 260 271
252 259 258 264 267 264 251 249 243 214 209 203 197 194 186 170 166 165 168 165 163 160 160 158 154 158 168 177 180 185 175 174 162 158 159 163 166 176 178 175 184 197 196 211 226 245 263 258 262
252 258 260 261 261 256 251 251 244 221 210 206 188 185 177 160 159 156 157 158 163 162 159 155 156 161 166 179 181 187 179 173 172 169 164 174 168 177 180 183 182 193 204 211 220 220 233 259 277
244 245 244 237 237 247 250 245 241 232 205 194 177 166 161 149 149 150 158 165 172 165 161 160 160 163 166 177 183 183 181 180 182 181 176 181 170 171 183 200 195 202 209 205 217 218 229 246 253
233 235 239 244 246 254 248 237 200 204 160 141 146 146 146 146 150 155 164 168 173 165 158 157 156 162 167 175 182 175 179 184 178 186 182 183 186 178 175 189 195 212 215 210 208 240 222 230 250
241 238 249 258 266 266 248 233 209 167 134 132 143 154 158 157 161 163 165 164 164 165 157 157 156 161 167 171 171 172 174 175 169 168 178 185 198 178 162 177 185 197 207 215 203 231 237 222 233
246 251 252 255 262 267 253 233 213 174 168 161 156 152 152 155 156 151 154 157 163 165 155 153 154 162 165 171 180 175 171 170 164 164 167 172 181 168 162 178 184 195 199 199 219 245 225 218 233
236 244 249 258 261 266 270 264 94 162 174 170 165 157 154 147 145 147 154 147 152 159 158 153 151 158 166 173 175 169 171 171 169 170 169 170 173 160 168 181 189 202 203 196 210 248 237 226 238
242 244 245 252 260 269 272 268 338 129 128 132 144 144 142 146 144 147 146 145 153 151 149 147 153 166 171 171 169 168 165 166 166 167 165 163 168 181 181 191 204 215 213 210 212 241 252 239 250